This is the latest recevied weather packets stored in our database for station/object AC4AG. If no packets are shown the sender has not sent any weather packets the latest 1 day(s).
| Time | Temp. | Humidity | Pressure | Rain* | Wind** | Luminosity | Snow |
|---|---|---|---|---|---|---|---|
| 1778050350 | 16.11° C | 89% | 1006 hPa | 1.27 mm | - | 0 W/m² | - |
| 1778049137 | 16.11° C | 87% | 1006.4 hPa | 0 mm | - | 0 W/m² | - |
| 1778048836 | 16.11° C | 87% | 1006.4 hPa | 0 mm | - | 0 W/m² | - |
| 1778047926 | 15.56° C | 88% | 1006.5 hPa | 0 mm | - | 0 W/m² | - |
| 1778047321 | 15.56° C | 89% | 1007.1 hPa | 0 mm | - | 0 W/m² | - |
| 1778047018 | 15.56° C | 89% | 1007 hPa | 0 mm | - | 0 W/m² | - |
| 1778046715 | 15.56° C | 89% | 1007.1 hPa | 0 mm | - | 0 W/m² | - |
| 1778046412 | 15.56° C | 89% | 1007.2 hPa | 1.78 mm | - | 0 W/m² | - |
| 1778046108 | 15.56° C | 89% | 1007.2 hPa | 1.78 mm | - | 0 W/m² | - |
| 1778045504 | 15.56° C | 87% | 1007.2 hPa | 0 mm | - | 0 W/m² | - |
| 1778045202 | 15° C | 88% | 1007.3 hPa | 1.27 mm | - | 0 W/m² | - |
| 1778044900 | 15.56° C | 88% | 1007.2 hPa | 1.27 mm | - | 0 W/m² | - |
| 1778044597 | 15° C | 88% | 1007.4 hPa | 0 mm | - | 0 W/m² | - |
| 1778044293 | 15° C | 88% | 1007.3 hPa | 3.05 mm | - | 0 W/m² | - |
| 1778043688 | 15° C | 87% | 1007.6 hPa | 0 mm | - | 0 W/m² | - |
| 1778043385 | 15° C | 88% | 1007.4 hPa | 0 mm | - | 0 W/m² | - |
| 1778042476 | 15.56° C | 85% | 1007.8 hPa | 0 mm | - | 0 W/m² | - |
| 1778042173 | 15.56° C | 84% | 1007.6 hPa | 0 mm | - | 0 W/m² | - |
| 1778041571 | 15° C | 86% | 1007.7 hPa | 0 mm | - | 0 W/m² | - |
| 1778040966 | 15° C | 86% | 1008 hPa | 0 mm | - | 0 W/m² | - |
| 1778040056 | 15° C | 86% | 1007.8 hPa | 0 mm | - | 0 W/m² | - |
| 1778039753 | 15° C | 87% | 1008.1 hPa | 0 mm | - | 0 W/m² | - |
| 1778039450 | 15° C | 87% | 1008.2 hPa | 0 mm | - | 0 W/m² | - |
| 1778038845 | 15° C | 86% | 1008 hPa | 0 mm | - | 0 W/m² | - |
| 1778038542 | 15° C | 86% | 1008.2 hPa | 0 mm | - | 0 W/m² | - |
* Rain latest hour (hover to see other rain measurements)
** Current wind speed in m/s (hover to see current wind gust speed)